FW8932 Weather Reports


Display with metric or nautical units.
time (UTC)temp
F
wind
direction
speed
MPH
gust
MPH
rain 1hr
in
rain 24hr
in
rain mn
in
humidity
%
barometer
mb
20260506211206 58 180 2.0 1.0 0.00 1.00 0.70 61 976.5
20260506210706 58 180 2.0 1.0 0.00 1.00 0.70 61 976.5
20260506210206 58 180 2.0 1.0 0.00 1.00 0.70 61 976.5
20260506204706 58 180 2.0 1.0 0.00 1.00 0.70 61 976.5
20260506204206 58 180 2.0 1.0 0.00 1.00 0.70 61 976.5
20260506200706 57 180 2.0 1.0 0.00 1.00 0.70 63 976.6
20260506200206 57 180 2.0 1.0 0.00 1.00 0.70 63 976.6
20260506191705 56 180 2.0 1.0 0.00 1.00 0.70 65 976.9
20260506191206 56 180 2.0 1.0 0.00 1.00 0.70 64 976.9
20260506190706 56 180 2.0 1.0 0.00 1.00 0.70 65 976.9
20260506190206 56 180 2.0 3.0 0.00 1.00 0.70 64 976.9
20260506184707 55 173 2.0 5.0 0.00 1.00 0.70 67 976.9
20260506184206 55 180 2.0 3.0 0.00 1.00 0.70 65 976.9
20260506183706 55 239 2.0 5.0 0.00 1.00 0.70 64 977.0
20260506183206 56 151 2.0 5.0 0.00 1.00 0.70 67 977.0
20260506181206 56 147 2.0 5.0 0.00 1.00 0.70 68 976.7
20260506180706 57 138 1.0 5.0 0.00 1.00 0.70 64 976.6
20260506180206 57 160 3.0 7.0 0.00 1.00 0.70 64 976.6
20260506174706 56 187 2.0 5.0 0.00 1.00 0.70 69 976.7
20260506174206 55 187 2.0 5.0 0.00 1.00 0.70 68 976.8
20260506173706 56 77 2.0 7.0 0.00 1.00 0.70 72 976.8
20260506173206 55 144 3.0 7.0 0.00 1.00 0.70 71 977.0
20260506171706 55 165 2.0 3.0 0.00 1.00 0.70 74 977.1
20260506171206 55 191 2.0 6.0 0.00 1.00 0.70 74 976.9
20260506170706 55 196 2.0 7.0 0.00 1.00 0.70 75 976.8
20260506170206 54 212 2.0 5.0 0.00 1.00 0.70 77 976.8
20260506164706 54 195 2.0 3.0 0.00 1.00 0.70 80 977.1
20260506163706 53 78 2.0 5.0 0.00 1.00 0.70 80 977.2
20260506163206 53 184 2.0 5.0 0.00 1.00 0.70 83 977.1
20260506161205 52 142 1.0 3.0 0.00 1.00 0.70 84 977.0
20260506160706 51 214 2.0 3.0 0.00 1.00 0.70 84 976.9
20260506160206 51 186 2.0 5.0 0.00 1.00 0.70 86 976.8
20260506154706 50 154 2.0 3.0 0.00 1.00 0.70 89 976.8
20260506154206 50 170 2.0 3.0 0.00 1.00 0.70 90 976.7
20260506153706 50 199 2.0 3.0 0.00 1.00 0.70 92 976.7
20260506153206 50 210 2.0 5.0 0.00 1.00 0.70 91 976.5
20260506151706 50 171 2.0 5.0 0.00 1.00 0.70 93 976.6
20260506151206 50 136 1.0 3.0 0.00 1.00 0.70 93 976.6
20260506150706 50 145 2.0 5.0 0.00 1.00 0.70 92 976.6
20260506150206 49 182 3.0 6.0 0.00 1.00 0.70 94 976.5
20260506144706 49 165 2.0 5.0 0.00 1.00 0.70 96 976.4
20260506144206 49 200 2.0 3.0 0.00 1.00 0.70 97 976.3
20260506143706 49 190 2.0 3.0 0.00 1.00 0.70 97 976.1
20260506143206 49 201 2.0 3.0 0.00 1.00 0.70 97 976.1
20260506141706 49 169 2.0 3.0 0.00 1.00 0.70 97 975.7
20260506140706 49 201 1.0 3.0 0.00 1.00 0.70 97 975.7
20260506140206 49 121 1.0 3.0 0.00 1.01 0.70 97 975.6
20260506134706 48 107 1.0 3.0 0.00 1.01 0.70 97 975.5
20260506134206 48 188 1.0 3.0 0.00 1.01 0.70 97 975.5
20260506131706 47 161 1.0 2.0 0.07 1.02 0.70 97 975.5
20260506131206 47 178 2.0 2.0 0.07 1.02 0.70 97 975.4
20260506130706 47 166 1.0 3.0 0.14 1.02 0.70 97 975.3
20260506130206 47 157 1.0 2.0 0.14 1.02 0.70 97 975.2
20260506124706 47 144 1.0 1.0 0.14 1.02 0.70 97 975.1
20260506124206 46 133 2.0 1.0 0.14 1.02 0.70 96 973.5
20260506123215 46 134 2.0 1.0 0.07 0.95 0.63 96 973.2
20260506093211 52 134 2.0 1.0 0.07 0.74 0.42 96 972.1
20260506091711 52 134 2.0 1.0 0.07 0.74 0.42 96 972.1
20260506091211 52 134 2.0 1.0 0.07 0.74 0.42 96 972.1
20260506083711 52 134 2.0 1.0 0.07 0.67 0.35 96 972.1
20260506083210 52 134 2.0 1.0 0.07 0.67 0.35 96 972.1
20260506080710 52 134 2.0 1.0 0.07 0.67 0.35 96 972.1
20260506071209 54 134 2.0 1.0 0.07 0.60 0.28 96 972.0
20260506070709 54 134 2.0 1.0 0.07 0.60 0.28 96 972.1
20260506070208 55 134 2.0 1.0 0.07 0.60 0.28 96 972.1
20260506061708 58 134 2.0 1.0 0.07 0.53 0.21 96 972.3
20260506061208 58 134 2.0 1.0 0.07 0.53 0.21 96 972.5
20260506060708 58 134 2.0 1.0 0.07 0.53 0.21 96 972.5
20260506060208 58 134 2.0 1.0 0.07 0.53 0.21 96 972.4
20260506051206 58 134 2.0 1.0 0.07 0.46 0.14 96 973.2
20260506050707 58 134 2.0 1.0 0.07 0.46 0.14 96 973.2
20260506050206 58 134 2.0 1.0 0.07 0.46 0.14 96 973.3
20260506044707 58 134 2.0 1.0 0.07 0.39 0.07 96 973.5
20260506044206 58 134 2.0 1.0 0.07 0.39 0.07 96 973.4
20260506043705 58 134 2.0 1.0 0.07 0.39 0.07 96 973.4
20260506041706 58 134 2.0 1.0 0.07 0.39 0.07 96 973.6
20260506041205 58 134 2.0 1.0 0.07 0.39 0.07 96 973.5
20260506040706 58 134 2.0 1.0 0.07 0.39 0.07 96 973.5
20260506040206 58 134 2.0 1.0 0.07 0.39 0.07 96 973.5
20260506034705 58 134 2.0 1.0 0.07 0.32 0.28 96 973.5
20260506034205 58 134 2.0 1.0 0.07 0.32 0.28 96 973.7
20260506033705 58 134 2.0 1.0 0.07 0.32 0.28 96 973.6
20260506033205 58 134 2.0 1.0 0.07 0.32 0.28 96 973.7
20260506031705 58 134 2.0 1.0 0.07 0.32 0.28 96 973.7
20260506030705 58 134 2.0 1.0 0.07 0.32 0.28 96 973.7
20260506030204 58 134 2.0 1.0 0.07 0.32 0.28 96 973.7
20260506021225 59 134 2.0 1.0 0.07 0.25 0.21 96 973.3
20260506010705 59 134 2.0 1.0 0.09 0.18 0.14 96 973.3
20260506010205 59 134 2.0 1.0 0.10 0.18 0.14 96 973.3
20260506004704 59 134 2.0 1.0 0.09 0.15 0.11 96 973.5
20260506004205 59 134 2.0 1.0 0.09 0.15 0.11 96 973.6
20260506003704 59 134 2.0 1.0 0.12 0.15 0.14 96 973.5
20260506003205 60 134 2.0 1.0 0.11 0.14 0.13 96 973.5
20260506001704 61 134 2.0 1.0 0.03 0.06 0.05 91 973.1
20260506000704 62 134 2.0 1.0 0.03 0.05 0.05 88 973.0
20260506000205 64 134 2.0 1.0 0.02 0.05 0.04 86 972.9
20260505234705 69 134 2.0 1.0 0.00 0.03 0.02 67 972.7
20260505234205 69 134 2.0 1.0 0.00 0.03 0.02 62 972.4
20260505233704 69 134 2.0 1.0 0.00 0.03 0.02 61 972.3
20260505233204 69 134 2.0 1.0 0.00 0.03 0.02 61 972.3
20260505231704 69 134 2.0 1.0 0.00 0.03 0.02 62 972.2
20260505231205 69 134 2.0 1.0 0.00 0.03 0.02 62 972.2
20260505230704 69 134 2.0 1.0 0.00 0.03 0.02 62 972.1
20260505230205 69 134 2.0 1.0 0.00 0.03 0.02 62 972.2
20260505224705 69 134 2.0 1.0 0.00 0.03 0.02 63 972.2
20260505224205 70 134 2.0 1.0 0.00 0.03 0.02 63 972.3
20260505223204 70 134 2.0 3.0 0.00 0.03 0.02 63 972.3
20260505221705 70 144 2.0 6.0 0.00 0.03 0.02 61 972.2
20260505221204 70 175 2.0 5.0 0.00 0.03 0.02 61 972.3
20260505220704 70 136 2.0 5.0 0.00 0.03 0.02 62 972.3
20260505220204 70 184 2.0 5.0 0.00 0.03 0.02 63 972.3
20260505214705 70 157 2.0 5.0 0.00 0.03 0.02 62 972.3
20260505213704 70 177 2.0 5.0 0.00 0.03 0.02 62 972.3
20260505213205 70 157 2.0 8.0 0.00 0.03 0.02 61 972.3
20260505211705 70 191 2.0 7.0 0.00 0.03 0.02 61 972.4